Wind_Speed
23 24 25 25 25 25 23 21 20 19 20 20 19 17 16 17 17 15 14 16 14 13 16 18 16 16 17 17 16 16 17 17 16 16 17 17 17 17 16 15 14 14 13 13 13 13 14 14 15 15 15 16 16 17 17 18 18 18 18 18 18 18 18 18 18 17 17 16 16 16 16 15 15 14
24 24 24 24 24 24 24 24 22 20 20 21 20 18 17 17 18 18 17 16 14 13 15 16 14 15 17 18 18 16 16 16 16 16 16 16 17 17 16 15 14 13 14 14 13 13 14 14 14 14 14 14 14 15 15 15 17 17 18 18 18 18 18 18 17 18 17 17 16 16 16 15 15 15
26 25 24 24 25 24 24 25 24 22 21 21 20 19 18 17 18 19 18 18 16 13 13 14 13 13 13 15 17 16 16 16 16 16 15 14 14 14 15 14 13 13 14 14 14 15 15 15 15 15 15 15 15 15 15 14 15 16 17 18 18 18 17 17 17 18 17 16 16 17 16 16 16 15
28 26 24 25 25 24 24 25 24 24 23 22 22 21 20 19 19 19 19 21 19 15 13 12 13 12 12 12 14 15 16 15 14 15 15 13 13 14 15 15 15 15 15 15 15 15 15 15 15 15 16 16 16 16 16 15 16 16 17 18 18 17 17 17 17 17 16 16 17 17 17 17 16 16
30 28 27 27 26 25 26 25 25 25 23 23 24 23 22 21 20 19 20 21 21 19 16 13 11 12 13 13 13 13 14 14 14 14 13 13 14 14 16 16 16 15 14 14 14 14 14 15 15 16 16 16 17 17 17 17 17 17 18 18 18 17 17 17 17 16 16 16 17 18 17 17 17 17
32 30 30 30 28 26 26 27 26 25 24 24 24 25 24 23 22 22 22 21 22 22 20 17 15 13 14 14 12 12 13 14 13 14 13 14 16 16 15 16 16 15 14 13 12 13 13 14 14 15 16 16 17 17 18 18 18 18 18 19 19 18 18 18 17 17 17 17 18 18 18 18 18 18
34 32 31 31 31 28 26 27 27 27 26 26 24 23 24 24 23 23 23 24 25 24 22 20 17 16 15 13 12 13 13 12 12 13 14 15 17 17 16 16 16 16 14 13 14 15 15 15 15 15 16 16 17 17 18 18 19 19 19 20 20 20 19 19 19 18 18 18 19 19 19 18 19 19
36 35 34 34 34 30 27 27 27 27 28 28 26 25 24 23 22 21 22 24 24 23 23 21 17 16 16 15 15 15 15 14 14 15 15 16 17 17 15 15 15 15 15 15 16 17 17 16 15 15 16 17 17 17 18 19 19 19 20 20 20 20 21 20 20 20 20 21 21 21 21 20 20 20
35 38 38 37 36 33 29 28 28 28 29 29 29 28 26 24 22 20 22 23 23 22 23 21 18 16 16 15 17 18 18 17 18 17 16 15 16 16 15 14 14 15 15 16 17 17 17 16 16 17 18 18 18 18 18 18 19 19 20 20 20 21 21 21 21 21 22 23 23 23 23 23 22 22
33 36 38 38 37 35 32 31 29 29 28 28 29 30 28 27 25 22 21 23 23 23 23 22 20 19 18 18 19 19 19 18 18 17 16 14 14 14 14 14 14 13 13 14 15 14 15 15 15 17 18 19 19 19 19 19 19 19 20 20 21 21 21 21 21 21 22 23 24 23 23 23 24 23
31 34 37 39 37 34 34 35 35 32 30 29 29 30 29 29 28 25 23 23 23 23 24 24 23 22 21 20 20 20 19 18 18 18 17 15 13 13 14 14 14 14 14 14 13 13 14 15 16 17 17 17 18 18 19 20 20 20 21 21 21 21 21 21 21 21 22 23 24 23 23 23 24 23
30 32 35 40 41 39 38 40 39 37 33 29 28 28 28 28 29 28 25 24 23 22 23 23 22 22 22 22 21 19 20 20 19 18 17 15 13 14 15 15 15 15 16 15 13 13 15 16 18 18 16 16 17 17 18 19 20 21 21 21 22 21 21 21 21 21 21 22 23 22 21 22 22 22
29 31 34 38 41 41 40 40 40 39 36 32 31 30 27 27 29 31 29 27 25 23 23 23 22 21 22 24 23 21 21 20 19 18 18 16 15 15 15 14 15 15 14 14 13 14 16 17 17 17 17 17 17 17 18 19 20 20 20 20 20 20 20 20 20 20 20 21 21 21 20 19 18 18
27 28 31 33 35 37 37 37 38 37 36 35 36 35 31 27 27 29 31 29 27 25 24 24 24 23 24 25 24 23 21 19 18 19 20 19 17 16 16 15 14 13 12 14 15 16 17 17 18 19 19 19 18 18 18 18 17 16 16 17 18 18 18 18 19 18 18 18 19 19 18 17 14 12
27 27 27 29 31 33 35 35 35 35 36 37 38 38 35 31 26 27 30 30 29 27 25 25 25 26 26 26 26 25 22 20 19 19 20 20 18 17 17 16 14 11 11 13 15 16 17 18 19 20 20 19 18 19 19 18 17 15 14 14 15 15 15 16 16 16 15 15 15 16 16 15 13 10
28 28 27 27 29 32 33 33 33 34 36 38 38 36 35 34 31 28 28 28 28 28 27 27 28 29 29 29 29 29 25 21 21 21 20 19 17 17 18 16 13 11 11 13 15 15 16 18 19 20 19 17 17 18 18 16 15 14 13 14 14 13 13 13 13 13 12 12 13 13 14 14 12 11
27 28 27 27 29 31 31 31 31 33 34 34 34 34 34 35 35 32 29 28 28 29 29 30 32 32 31 31 31 28 24 22 22 22 22 20 19 19 19 17 15 14 13 14 15 16 16 17 18 19 18 17 16 17 17 15 14 13 13 13 13 13 12 12 11 11 10 10 11 11 11 11 11 10
25 27 27 27 29 30 32 32 31 33 34 33 32 34 35 37 37 36 34 32 31 32 33 34 34 33 32 31 30 28 25 24 23 23 23 22 22 21 19 18 17 17 16 14 15 17 17 16 16 17 17 17 16 16 16 16 14 12 11 11 11 11 11 11 10 9 9 10 10 10 10 10 9 9
23 24 26 27 28 29 29 30 31 32 33 34 34 35 36 37 38 37 36 35 33 33 35 36 36 35 33 32 31 31 30 28 25 24 24 23 22 21 20 20 20 19 18 16 15 17 16 15 16 16 15 17 18 16 15 15 14 12 12 12 11 11 11 11 10 9 9 9 9 9 9 9 9 9
23 23 25 26 27 27 26 25 27 29 31 33 35 36 37 37 37 37 37 36 35 34 35 36 36 36 34 34 34 33 32 31 29 27 25 25 24 23 23 24 23 21 20 18 16 16 16 15 15 15 15 16 17 16 15 14 14 13 13 11 10 10 10 11 10 9 8 8 8 8 7 7 7 6
21 22 23 23 24 25 26 25 25 27 29 31 34 36 37 36 36 36 36 36 36 35 35 35 35 36 35 36 36 35 34 34 33 30 27 27 27 27 27 27 25 23 22 20 17 16 15 14 14 15 15 15 15 15 14 14 13 12 10 9 9 9 10 10 9 9 8 8 7 6 4 4 3 3
20 21 22 22 22 23 25 26 26 27 28 30 32 34 34 35 35 34 34 35 35 34 33 33 33 34 35 36 38 39 38 38 37 35 32 29 28 29 29 28 26 24 22 20 18 17 15 14 14 15 15 15 15 15 14 14 13 11 9 8 9 10 10 11 10 9 9 8 6 3 2 3 3 2
21 21 21 21 22 23 24 25 27 28 28 29 30 29 29 31 33 33 32 33 32 31 31 31 32 33 34 34 36 38 40 40 40 39 36 32 30 29 29 28 26 26 24 22 19 18 16 14 15 15 16 15 15 14 14 13 12 11 10 10 10 11 11 11 9 8 7 6 5 4 4 4 4 3
20 21 21 20 21 22 23 24 26 27 27 28 28 26 26 28 30 29 29 29 30 30 30 30 31 33 33 33 32 33 35 37 38 38 38 36 34 33 31 30 29 28 26 23 20 18 17 16 15 15 16 15 15 14 13 12 12 10 9 9 10 11 10 8 7 7 6 5 5 6 6 6 5 4
19 20 20 21 20 20 21 22 23 24 25 25 25 25 26 26 25 24 25 26 27 27 28 29 30 31 31 30 30 31 32 33 34 34 36 36 36 36 34 33 32 30 29 25 22 19 18 17 16 15 15 17 16 14 13 12 11 10 9 9 9 9 8 6 7 9 7 4 5 8 8 6 5 4
20 20 20 21 21 19 20 21 21 21 22 23 23 24 25 25 24 24 26 26 25 25 27 28 30 31 30 29 29 29 30 30 30 31 33 35 36 36 35 34 33 31 30 28 25 22 21 20 18 17 17 19 18 16 14 13 11 10 9 8 7 6 4 4 6 8 6 4 5 8 9 7 6 5
21 21 19 19 20 20 20 20 20 19 20 21 22 22 23 23 23 24 26 27 27 26 28 29 30 31 30 29 28 29 29 29 29 30 32 34 34 33 34 34 33 32 31 30 28 26 24 22 20 19 19 20 19 18 16 13 12 11 9 8 7 5 4 5 6 7 6 5 5 6 7 7 6 4
19 20 19 18 19 20 19 19 19 18 18 19 20 20 20 20 20 21 23 25 25 25 27 30 32 32 31 30 29 28 28 28 29 30 31 30 30 31 32 33 32 32 33 33 31 28 26 24 21 19 19 19 20 19 17 15 13 12 11 9 7 7 6 6 7 7 6 5 5 5 6 6 5 3
17 19 19 19 19 20 20 20 20 18 16 16 16 17 17 17 18 20 21 22 22 23 26 28 29 30 31 30 29 27 27 28 30 30 29 28 28 28 29 30 31 33 33 32 29 28 28 26 22 21 21 21 19 18 17 17 15 13 13 12 10 8 8 7 6 6 5 5 5 5 5 6 6 5
15 17 18 19 19 20 21 22 21 19 17 15 15 15 16 17 18 20 22 22 22 24 25 26 27 28 29 28 27 27 27 28 29 29 28 28 28 27 27 28 30 31 31 30 28 26 26 25 23 23 23 21 18 17 18 18 16 14 13 13 12 10 9 7 4 3 4 5 6 5 6 7 8 7
12 13 13 15 16 18 21 22 23 21 19 18 17 17 18 19 21 22 22 23 24 25 25 25 26 25 24 24 25 26 27 27 28 28 27 27 28 28 27 29 30 30 29 28 26 26 26 25 23 22 21 20 18 18 16 15 15 16 14 12 10 9 7 5 3 3 4 6 9 10 10 11 10 9
11 10 10 11 13 15 17 19 21 22 21 20 20 19 20 21 21 22 23 24 25 26 25 24 24 23 22 22 24 25 26 27 26 26 26 26 27 28 28 29 31 31 31 29 26 24 23 23 22 20 21 21 19 17 15 12 13 15 14 12 10 7 6 4 4 6 9 11 13 13 12 11 10 9
15 12 11 12 13 13 14 15 17 18 18 18 17 17 17 17 17 17 18 20 21 21 20 20 21 21 23 24 25 25 26 25 25 25 25 25 26 27 28 29 29 30 30 28 26 24 22 23 22 21 22 22 20 17 16 15 15 13 12 13 12 10 9 6 6 10 14 16 16 15 13 12 11 10
20 16 13 14 14 14 14 15 15 15 14 13 12 11 12 12 13 14 15 17 18 18 18 19 20 20 22 23 24 25 26 25 25 25 25 25 25 27 29 31 31 30 29 27 27 26 24 24 24 22 22 22 21 19 18 18 17 13 12 14 15 13 10 8 9 15 18 17 16 15 13 12 12 11
21 18 15 15 16 16 16 15 14 13 12 10 10 11 12 12 13 15 16 17 19 19 20 21 22 23 23 24 24 25 25 24 23 23 24 26 27 28 28 29 31 32 31 29 27 27 26 27 27 26 24 22 21 20 20 19 18 16 16 16 16 13 11 10 13 17 17 15 15 14 13 13 13 11
20 19 18 18 17 17 16 14 12 12 11 10 11 13 13 12 13 14 16 17 20 22 23 24 25 25 25 26 26 25 26 25 24 23 24 26 27 27 28 29 29 30 29 28 27 28 27 25 25 26 25 23 21 21 20 20 20 19 18 16 15 14 12 12 14 14 13 12 14 13 12 12 12 10
20 20 20 20 19 17 16 14 13 12 12 12 12 12 11 11 13 15 16 18 20 22 23 25 27 26 26 26 25 25 26 26 25 24 24 25 27 29 31 31 31 32 31 29 28 26 23 21 23 25 25 25 25 24 22 21 20 18 15 16 18 16 13 13 14 14 13 13 13 11 10 10 10 9
20 21 20 19 18 17 15 12 11 10 11 11 11 10 10 11 12 13 14 16 17 17 17 20 23 24 24 23 22 22 23 24 25 26 26 26 27 31 33 33 34 35 33 29 26 24 22 22 24 23 23 26 29 28 25 23 21 18 17 19 20 19 16 15 15 16 15 14 12 10 8 8 9 8
20 21 20 20 19 17 14 12 11 10 10 9 9 10 10 10 10 11 12 13 12 12 13 15 16 17 19 19 19 19 20 22 24 24 22 21 24 29 34 34 33 32 29 26 26 26 25 24 22 20 21 25 28 28 28 26 23 21 20 19 18 18 18 17 16 16 15 12 11 10 10 9 7 6
19 21 22 22 20 17 14 13 12 11 12 11 10 11 10 8 7 9 10 8 7 8 10 11 12 12 13 14 15 16 16 17 18 18 19 21 24 27 31 32 31 30 28 26 26 26 25 25 23 21 23 25 25 25 26 27 25 23 20 17 15 16 16 16 14 14 13 11 9 9 9 8 6 6
19 21 23 22 19 17 16 15 13 11 13 13 12 12 10 9 8 7 4 1 0 3 3 6 9 10 10 11 11 13 15 17 18 19 20 23 25 27 30 30 28 27 26 25 24 25 26 26 25 23 22 23 23 24 25 27 26 23 20 17 15 15 14 13 10 10 10 9 8 8 8 7 6 6
17 19 22 21 18 18 18 15 12 11 12 12 12 10 10 10 9 4 3 7 6 5 6 9 9 9 11 11 10 10 13 14 16 20 26 30 32 33 31 28 26 26 26 25 25 25 25 24 24 22 19 19 22 24 25 26 26 24 21 18 17 16 14 11 9 8 8 8 7 8 9 10 9 7
16 17 19 18 17 16 13 9 8 10 11 12 12 9 7 7 8 8 10 10 8 8 13 19 20 19 21 22 23 25 28 30 32 34 33 32 31 31 30 27 26 26 27 26 25 24 23 22 20 18 17 18 22 24 24 25 26 24 21 19 17 16 14 12 10 9 8 8 8 8 8 8 8 7
15 15 17 17 16 14 11 9 9 12 11 11 12 11 8 7 10 12 12 11 10 11 15 20 22 22 23 24 25 26 28 30 33 33 30 27 25 25 25 24 24 26 28 27 26 24 22 20 18 17 19 21 22 22 23 24 25 23 21 19 17 16 14 13 11 10 10 11 12 11 8 7 7 5
13 15 17 17 16 15 13 12 12 13 12 10 12 13 11 9 10 12 12 13 13 13 14 17 19 19 19 18 19 20 21 22 24 25 23 21 20 19 20 21 23 24 25 26 26 24 22 21 20 20 20 19 17 18 20 22 22 22 22 20 17 16 14 13 12 12 13 13 13 12 10 10 8 5
Wind_Direction
237 241 241 238 240 241 241 242 244 245 245 241 240 240 236 237 240 237 236 240 245 242 240 248 248 238 234 234 235 236 238 244 248 247 242 242 249 253 251 247 245 245 246 248 249 250 251 251 250 251 251 251 252 252 253 254 256 257 257 258 260 262 264 266 269 272 274 276 277 278 279 279 278 278
238 242 243 240 239 241 241 240 242 246 248 246 244 240 238 241 242 241 242 241 241 239 244 253 254 244 236 233 236 241 242 244 246 247 248 248 249 253 253 250 247 247 247 249 251 251 252 253 253 253 253 253 254 255 257 258 260 261 260 259 259 260 262 265 268 272 275 276 276 276 276 275 274 273
238 239 243 242 238 239 241 240 240 243 246 246 245 242 240 241 244 246 243 239 239 237 244 258 259 251 245 240 242 245 245 247 249 245 246 253 254 253 254 255 256 256 254 253 255 256 256 255 255 255 255 254 255 257 261 263 264 265 263 261 260 259 260 263 267 271 274 276 275 274 273 272 270 269
244 241 242 242 239 237 239 240 239 240 242 242 243 243 240 239 244 248 242 239 242 239 238 256 263 254 248 248 251 250 245 245 245 240 243 254 258 259 262 265 265 264 263 260 259 261 262 261 261 260 259 258 258 259 261 263 264 264 264 263 262 260 259 261 265 269 273 274 273 272 270 267 266 265
253 248 245 245 242 238 239 240 238 239 240 240 241 241 239 238 239 242 241 242 247 244 235 238 253 258 254 251 254 255 249 245 239 236 243 253 259 265 270 270 269 265 262 262 263 264 266 267 267 265 264 263 261 261 262 262 263 262 262 263 263 261 259 259 263 268 272 273 271 269 267 265 263 262
255 251 248 248 246 241 240 240 239 238 238 239 241 239 238 238 237 238 241 242 245 247 243 237 239 248 255 256 257 257 255 254 249 245 247 253 261 267 269 270 273 269 260 258 262 265 268 271 271 269 267 265 264 263 262 262 262 262 261 260 261 260 259 260 264 268 271 270 268 267 265 264 263 264
253 251 250 250 248 245 242 241 241 240 237 238 243 242 240 239 236 239 244 243 242 244 246 247 241 233 236 247 256 257 252 248 250 252 253 257 264 268 268 268 271 269 265 263 264 265 267 270 272 272 271 267 264 262 261 260 260 260 260 259 259 259 260 261 264 267 269 269 267 265 264 264 264 266
252 252 253 252 248 245 243 242 241 241 238 239 241 243 244 243 238 239 244 245 244 244 246 250 247 235 229 234 245 250 246 244 246 249 251 257 264 267 268 266 264 267 271 271 271 269 268 269 272 274 273 269 265 262 260 259 259 259 260 260 259 259 260 261 263 265 267 267 266 263 260 260 262 264
253 251 253 252 248 245 245 245 243 242 241 240 240 241 244 245 241 240 242 245 247 246 245 245 242 239 236 234 240 245 248 249 248 246 248 253 257 263 267 267 266 270 274 272 271 272 272 274 276 278 275 270 266 263 260 259 260 260 261 261 261 260 261 261 262 264 266 267 266 265 262 262 265 268
256 252 252 252 248 243 242 244 245 244 243 243 241 241 242 243 243 241 239 244 247 244 242 240 238 239 241 239 242 247 252 253 250 249 253 253 251 256 262 266 270 274 274 272 273 276 277 279 281 280 275 269 267 265 264 263 263 263 263 263 263 262 262 263 264 265 267 267 268 268 268 270 273 274
260 255 250 248 246 243 239 239 239 238 239 241 243 243 242 240 238 236 236 241 244 242 241 242 241 241 244 247 248 250 254 258 257 255 253 254 255 256 256 259 265 271 273 275 279 283 281 280 277 271 264 263 265 266 266 266 265 265 265 264 264 264 263 264 264 266 267 268 270 270 271 273 276 277
260 257 252 247 245 246 244 239 236 233 233 237 240 241 242 242 237 233 233 237 240 242 242 243 244 244 246 249 249 250 253 257 259 257 251 254 260 259 257 258 260 267 273 277 280 282 280 279 276 270 265 264 264 263 262 262 261 263 265 265 265 265 264 263 263 264 266 268 271 272 273 274 276 278
262 259 254 249 246 246 247 243 238 235 234 235 237 235 239 244 239 231 229 230 234 239 241 240 242 244 247 250 251 252 254 257 259 256 251 254 257 255 256 258 258 262 270 274 275 273 273 275 276 276 276 273 270 267 264 261 260 262 265 268 267 265 263 262 262 263 265 268 271 273 274 274 273 273
264 260 256 252 248 247 247 245 240 238 239 240 239 237 239 243 237 229 228 228 229 235 239 240 242 244 248 253 256 257 258 259 259 255 254 261 263 257 255 258 259 262 269 272 270 269 271 276 279 280 279 276 274 274 270 264 262 265 269 270 269 265 263 261 261 262 263 265 268 272 276 279 278 272
265 264 261 255 250 247 247 245 240 238 241 242 241 241 243 242 236 231 231 232 232 235 238 241 244 245 248 254 260 263 263 258 254 256 260 264 262 255 255 260 262 266 277 278 272 271 277 282 283 282 280 277 277 277 274 268 264 267 272 271 269 267 263 260 258 258 259 261 265 270 275 281 283 274
266 265 263 257 252 248 246 246 242 238 238 239 239 241 242 239 235 234 234 236 239 240 242 243 245 248 250 255 260 262 262 257 255 258 259 257 254 252 257 264 268 273 285 285 277 274 277 280 279 279 279 279 277 277 276 271 264 266 271 270 269 268 265 261 259 258 259 259 264 268 271 274 276 271
268 264 262 260 255 247 244 243 239 235 235 237 238 239 240 238 238 241 243 245 249 251 250 249 250 253 256 258 260 261 263 262 259 257 253 249 251 255 261 268 271 273 278 282 280 277 277 279 279 278 279 278 273 272 273 271 267 269 270 267 265 266 265 265 264 262 262 261 262 267 268 267 266 264
270 263 258 259 257 249 244 242 237 232 234 238 241 242 242 242 244 246 247 247 249 253 253 252 253 256 258 258 258 259 262 263 261 259 256 253 254 259 265 270 271 270 274 278 280 279 279 280 279 277 275 273 270 270 271 273 272 270 268 265 263 264 264 265 265 263 263 264 261 259 257 254 254 253
274 266 259 259 258 252 245 242 239 237 238 241 244 244 244 245 247 248 248 247 247 248 251 253 254 256 257 256 255 257 260 261 261 263 263 259 257 256 259 262 265 268 272 276 277 277 278 278 276 275 272 270 270 269 268 270 269 266 267 265 262 262 262 262 264 264 263 261 257 252 247 245 249 252
277 269 262 260 259 254 249 244 243 245 245 245 245 245 245 245 246 247 247 247 246 244 246 250 254 257 258 257 255 255 256 258 260 262 259 253 249 248 251 257 263 267 271 273 272 270 271 273 271 271 269 266 266 265 264 267 268 267 266 261 253 254 257 258 260 260 257 256 253 252 252 249 251 255
278 269 265 264 263 258 253 248 247 250 251 249 247 246 245 245 245 247 247 245 243 242 244 247 251 255 258 259 258 254 253 254 256 255 251 247 245 246 251 257 262 266 268 269 266 262 263 268 268 265 263 263 262 259 257 260 262 262 261 256 249 249 251 254 259 259 258 262 260 257 257 246 235 235
280 272 267 266 263 259 254 250 250 253 255 254 250 246 245 245 246 248 248 245 242 241 242 245 249 253 254 255 256 256 254 254 253 252 251 249 248 249 253 256 261 264 264 263 260 255 253 261 266 259 255 257 258 257 256 255 252 250 252 251 248 250 252 254 254 250 250 258 261 245 226 214 198 193
281 275 268 263 259 257 255 252 251 253 255 256 253 249 247 246 246 248 248 247 244 243 244 247 250 252 250 248 249 253 254 255 255 255 254 251 249 250 254 255 256 257 258 257 253 249 248 256 259 253 248 249 251 252 251 247 242 242 248 248 247 252 256 252 247 243 242 244 236 215 213 214 204 208
283 279 273 267 262 257 255 253 250 250 252 253 253 252 250 247 246 247 248 247 247 247 248 248 249 250 248 243 242 246 249 251 253 255 255 253 251 251 253 253 252 254 258 256 250 247 249 250 249 246 245 246 247 248 243 236 233 236 241 244 251 257 254 243 236 234 229 224 216 207 209 212 206 214
278 278 274 270 266 261 256 251 247 247 248 251 253 254 252 250 249 250 250 251 251 250 248 248 248 248 246 242 240 241 244 247 248 250 252 252 251 250 250 250 251 253 256 254 250 250 248 243 241 239 237 237 240 241 232 222 221 226 232 240 249 253 248 231 221 215 201 191 210 205 199 203 207 213
266 270 272 270 267 262 255 248 244 244 244 246 250 251 252 253 253 251 251 252 254 252 249 248 250 249 246 244 242 242 244 247 248 248 249 249 250 249 249 249 250 252 253 251 251 251 247 242 243 241 233 229 229 227 219 210 207 214 226 230 225 221 218 203 203 208 202 204 219 206 194 195 203 204
263 263 268 269 262 256 254 248 242 241 242 244 246 247 250 252 252 250 249 249 250 250 248 248 250 250 247 245 247 250 251 250 250 250 249 248 247 246 246 248 249 249 249 249 250 249 244 241 245 244 236 228 222 217 211 206 205 206 209 211 203 192 190 190 194 205 211 208 207 200 194 194 193 193
265 264 266 264 256 252 251 247 243 241 242 243 244 243 245 248 249 247 245 245 247 249 249 248 249 250 249 249 252 255 253 251 253 253 251 250 249 246 244 245 246 246 246 247 248 245 240 239 242 241 234 226 219 212 204 201 202 201 198 199 200 193 193 193 191 193 196 192 189 193 200 197 183 165
264 264 264 260 254 250 249 249 250 249 247 246 246 244 245 246 246 245 246 246 247 249 250 249 248 248 248 249 252 254 253 252 254 254 252 252 251 248 245 245 246 246 245 245 245 241 238 238 238 231 222 216 209 203 200 199 198 197 197 197 192 182 180 183 184 187 190 185 182 190 194 183 163 145
265 263 259 254 249 247 249 253 255 255 253 252 250 247 245 246 247 248 250 251 249 250 249 248 247 248 249 250 251 251 251 250 250 251 250 250 250 249 247 246 246 243 241 240 237 233 231 232 231 226 219 210 201 198 202 202 194 188 189 190 182 170 167 173 177 194 201 182 162 146 142 140 136 135
263 258 254 249 244 241 243 248 252 254 254 253 251 250 247 248 251 253 255 257 257 258 257 254 252 253 253 252 249 247 247 247 248 250 250 249 249 248 244 244 246 241 233 229 225 224 224 223 221 216 207 199 193 193 196 193 184 176 171 169 168 163 161 169 178 191 186 160 131 117 121 130 139 149
263 254 248 249 247 240 238 243 247 250 252 253 254 255 253 252 253 254 255 257 257 259 260 257 254 251 248 247 245 244 245 246 246 248 248 247 248 246 241 243 241 228 217 215 216 215 211 207 204 196 186 183 181 175 170 169 170 167 158 152 154 151 140 147 167 162 150 137 131 135 141 147 155 164
271 263 250 248 252 249 243 242 242 243 245 246 248 250 250 251 252 250 249 249 252 256 257 255 250 246 245 247 247 246 246 247 247 246 245 245 247 245 241 240 232 217 211 214 213 205 193 188 187 183 177 175 173 167 163 161 160 161 159 157 157 149 129 122 142 149 144 141 147 157 161 159 163 172
268 266 260 254 253 251 247 245 243 239 238 238 240 246 249 248 246 244 244 247 251 254 255 254 253 250 248 249 250 249 249 249 248 246 245 246 248 243 238 236 232 225 221 215 203 192 186 181 177 174 172 173 172 167 162 157 153 156 164 166 163 150 128 121 138 144 144 150 159 164 167 167 169 178
265 262 260 255 251 248 247 248 249 244 237 235 239 244 247 248 245 242 243 247 250 251 251 253 254 253 250 249 249 250 250 249 249 249 248 247 244 238 235 235 229 220 214 206 193 185 181 177 171 168 168 169 167 162 160 158 151 146 148 155 159 151 132 130 143 145 146 161 171 169 169 171 172 177
267 258 252 248 243 240 238 240 242 238 230 230 236 237 238 242 245 245 246 250 253 253 252 251 250 250 250 250 249 249 249 249 249 248 244 240 239 236 234 233 224 211 204 200 190 180 175 172 171 168 164 162 158 154 155 157 153 143 140 147 158 156 139 131 139 145 154 175 184 180 179 182 182 184
269 258 254 252 246 240 238 236 230 221 215 219 230 236 237 242 251 256 257 259 261 260 255 251 248 246 247 248 248 248 247 246 246 244 240 240 239 233 225 221 215 204 196 189 180 171 167 169 173 170 163 157 155 150 147 151 153 148 145 150 156 155 145 140 147 154 161 172 182 188 192 186 177 174
265 256 254 253 244 236 233 226 217 215 217 217 219 227 236 247 257 266 270 271 270 267 260 254 248 244 243 245 244 243 240 239 240 242 242 244 240 228 217 209 199 190 182 172 162 161 166 172 175 174 166 160 159 154 149 151 153 150 151 156 157 154 151 156 164 167 167 172 177 181 182 175 163 153
264 252 246 242 235 227 219 206 201 212 221 217 217 229 242 251 257 267 279 283 278 272 267 258 247 240 239 239 238 238 236 232 231 233 234 235 229 217 207 198 184 170 162 157 156 161 168 170 169 171 172 169 163 156 153 153 151 150 154 161 164 163 163 167 171 171 173 179 182 176 173 173 162 137
264 252 244 242 239 233 220 202 196 207 215 211 214 228 234 229 237 262 280 283 280 283 276 255 234 228 231 231 230 232 228 222 224 227 224 218 206 189 176 166 156 150 151 155 157 159 161 159 157 161 166 165 160 158 159 157 153 154 159 161 160 166 174 178 177 175 175 177 177 176 177 178 169 145
267 258 251 246 242 234 221 206 196 207 216 209 207 219 221 211 224 261 278 229 37 331 280 229 215 214 217 221 228 229 225 223 224 217 202 187 169 151 141 137 139 144 149 151 152 155 156 157 158 158 159 159 160 163 164 161 156 157 162 160 156 161 173 180 180 177 171 161 156 160 163 164 169 163
264 264 258 249 241 238 233 221 205 208 215 208 204 219 231 224 222 223 125 110 90 70 104 128 138 148 151 150 155 161 164 166 161 151 146 141 135 130 131 133 137 142 142 141 146 154 157 161 166 163 158 163 170 172 170 167 163 162 163 162 159 158 162 164 163 161 154 147 154 166 163 160 167 167
254 263 260 249 238 235 233 223 205 205 210 206 199 203 216 206 179 142 114 106 94 90 104 109 108 110 114 118 121 122 123 124 124 124 126 129 129 131 135 137 137 138 137 137 146 155 157 159 162 157 155 167 177 177 175 172 169 167 167 167 165 162 161 158 159 162 157 152 162 175 174 172 176 168
243 252 253 241 226 212 199 192 200 205 208 207 195 186 186 178 152 131 120 117 111 106 109 112 111 107 105 107 111 113 114 119 123 125 127 129 131 135 139 139 138 139 141 145 153 157 154 148 142 141 150 164 174 178 177 174 171 170 170 168 166 165 164 159 158 164 165 164 167 171 169 168 169 154
231 242 247 234 215 199 189 191 195 195 198 200 185 173 177 181 161 144 137 132 123 117 118 122 125 123 114 107 108 110 112 117 122 124 126 129 131 135 139 140 140 142 147 152 155 154 150 145 144 149 158 164 170 176 177 175 173 172 172 171 169 166 161 157 160 165 164 160 160 160 157 156 154 143
Height
1518 1520 1521 1522 1523 1524 1525 1525 1526 1527 1527 1528 1528 1528 1528 1528 1528 1529 1528 1527 1527 1527 1527 1527 1527 1528 1529 1529 1530 1531 1531 1531 1532 1532 1533 1533 1533 1534 1535 1535 1535 1536 1536 1536 1537 1537 1537 1538 1538 1538 1539 1539 1539 1540 1540 1540 1541 1541 1541 1542 1543 1543 1543 1544 1544 1544 1544 1545 1545 1545 1545 1545 1545 1545
1516 1516 1518 1520 1521 1522 1523 1523 1524 1525 1525 1526 1526 1526 1527 1527 1527 1527 1527 1527 1527 1527 1526 1526 1527 1527 1528 1528 1529 1530 1530 1531 1531 1531 1531 1532 1532 1533 1533 1534 1535 1535 1535 1535 1535 1536 1536 1536 1536 1536 1537 1537 1537 1538 1538 1538 1538 1539 1539 1540 1540 1541 1541 1542 1542 1542 1543 1543 1543 1543 1543 1543 1543 1544
1512 1514 1515 1517 1518 1519 1521 1521 1522 1523 1523 1524 1524 1525 1525 1525 1525 1525 1526 1525 1525 1526 1526 1525 1526 1526 1527 1528 1528 1529 1529 1529 1530 1530 1531 1531 1532 1532 1532 1533 1533 1534 1534 1534 1534 1534 1534 1534 1535 1535 1535 1535 1535 1536 1536 1536 1536 1537 1537 1538 1538 1539 1539 1540 1540 1540 1541 1541 1541 1541 1541 1541 1542 1542
1509 1511 1513 1514 1515 1517 1518 1519 1520 1520 1521 1522 1522 1523 1523 1523 1524 1524 1524 1523 1524 1525 1525 1525 1525 1525 1526 1527 1527 1527 1528 1528 1529 1529 1530 1531 1531 1531 1531 1531 1532 1532 1532 1533 1533 1533 1533 1533 1533 1533 1533 1533 1533 1534 1534 1534 1534 1535 1535 1535 1536 1536 1537 1537 1538 1538 1539 1539 1539 1539 1539 1540 1540 1540
1507 1509 1511 1512 1513 1514 1516 1516 1517 1518 1519 1520 1520 1520 1521 1521 1522 1522 1522 1522 1522 1523 1524 1524 1524 1524 1525 1526 1526 1526 1526 1527 1528 1528 1529 1529 1530 1530 1530 1530 1530 1531 1531 1531 1531 1531 1531 1531 1531 1531 1531 1531 1531 1531 1531 1531 1532 1532 1533 1533 1533 1534 1534 1535 1535 1536 1536 1537 1537 1537 1537 1538 1538 1538
1504 1505 1507 1509 1511 1512 1513 1514 1515 1516 1516 1517 1518 1518 1518 1519 1520 1520 1520 1520 1520 1521 1522 1523 1524 1524 1524 1524 1525 1525 1525 1526 1527 1527 1527 1528 1528 1528 1528 1528 1528 1529 1529 1529 1529 1529 1529 1529 1529 1529 1529 1529 1529 1529 1529 1529 1529 1529 1530 1530 1531 1531 1532 1532 1533 1533 1534 1534 1534 1535 1535 1536 1536 1537
1501 1502 1504 1506 1508 1509 1510 1511 1512 1513 1514 1515 1515 1516 1516 1517 1517 1518 1518 1518 1519 1519 1520 1521 1522 1523 1523 1523 1524 1524 1524 1524 1526 1526 1527 1527 1527 1527 1527 1527 1526 1526 1527 1527 1527 1527 1528 1528 1528 1528 1528 1527 1527 1527 1527 1526 1526 1526 1527 1527 1528 1528 1529 1530 1530 1530 1531 1531 1532 1532 1533 1534 1534 1534
1498 1499 1500 1502 1504 1506 1507 1509 1509 1511 1511 1512 1513 1513 1514 1515 1515 1516 1516 1516 1517 1518 1518 1519 1520 1521 1522 1522 1522 1522 1521 1522 1522 1523 1524 1524 1524 1524 1524 1524 1524 1524 1524 1525 1525 1526 1526 1526 1526 1526 1526 1525 1525 1524 1524 1524 1524 1524 1524 1524 1525 1525 1526 1527 1527 1528 1528 1528 1529 1530 1531 1531 1531 1532
1494 1495 1496 1497 1500 1502 1504 1505 1506 1507 1508 1509 1510 1511 1512 1512 1513 1514 1514 1514 1515 1516 1517 1517 1518 1519 1520 1520 1520 1520 1520 1520 1521 1521 1521 1522 1522 1522 1521 1521 1521 1521 1522 1522 1523 1524 1524 1525 1525 1525 1524 1523 1523 1522 1521 1521 1521 1521 1521 1522 1522 1523 1523 1524 1524 1525 1525 1525 1526 1527 1528 1528 1528 1529
1489 1491 1492 1493 1495 1498 1500 1501 1502 1503 1505 1506 1507 1508 1509 1510 1511 1512 1513 1513 1513 1514 1515 1516 1516 1516 1517 1517 1517 1518 1518 1519 1520 1520 1519 1519 1520 1520 1520 1519 1519 1519 1519 1519 1521 1522 1523 1523 1523 1522 1521 1520 1520 1520 1520 1519 1519 1519 1519 1519 1519 1520 1520 1521 1521 1521 1521 1522 1522 1524 1525 1525 1524 1525
1485 1486 1487 1488 1490 1492 1494 1495 1495 1497 1499 1501 1503 1505 1506 1507 1507 1509 1510 1511 1511 1511 1512 1513 1514 1514 1514 1515 1516 1516 1516 1517 1517 1517 1517 1516 1517 1517 1518 1517 1517 1516 1516 1516 1518 1519 1520 1521 1520 1518 1517 1517 1518 1518 1518 1518 1517 1517 1516 1516 1517 1517 1518 1518 1518 1519 1518 1518 1519 1521 1522 1523 1522 1522
1480 1480 1481 1482 1484 1486 1487 1488 1489 1491 1493 1495 1497 1500 1502 1504 1504 1505 1507 1508 1508 1509 1510 1511 1511 1512 1512 1512 1513 1514 1514 1514 1514 1515 1515 1514 1514 1514 1514 1515 1514 1514 1514 1514 1515 1516 1516 1516 1514 1514 1515 1516 1516 1516 1515 1515 1514 1514 1514 1514 1514 1514 1515 1515 1516 1516 1515 1515 1516 1517 1519 1520 1520 1519
1475 1475 1475 1476 1478 1480 1481 1483 1485 1487 1489 1491 1492 1494 1497 1499 1500 1501 1503 1504 1505 1506 1507 1508 1509 1510 1510 1510 1510 1511 1511 1512 1513 1513 1513 1512 1512 1512 1512 1512 1512 1512 1512 1513 1513 1513 1512 1512 1511 1512 1514 1514 1514 1514 1513 1512 1512 1511 1511 1511 1511 1511 1512 1512 1513 1513 1513 1513 1513 1514 1515 1517 1518 1518
1470 1470 1470 1471 1473 1475 1476 1478 1480 1483 1485 1487 1489 1491 1493 1495 1496 1497 1498 1500 1501 1503 1504 1505 1506 1507 1507 1507 1507 1508 1509 1510 1511 1511 1510 1511 1511 1510 1510 1510 1510 1510 1511 1511 1511 1511 1510 1509 1509 1510 1511 1512 1512 1511 1510 1510 1510 1510 1510 1509 1509 1509 1509 1509 1510 1510 1510 1511 1511 1511 1512 1513 1514 1515
1466 1467 1467 1468 1469 1471 1472 1473 1475 1477 1479 1482 1485 1488 1490 1492 1494 1494 1495 1495 1497 1499 1500 1501 1503 1503 1504 1504 1505 1506 1507 1507 1508 1508 1508 1508 1508 1508 1508 1508 1508 1509 1509 1509 1509 1509 1508 1508 1507 1508 1508 1509 1509 1509 1508 1508 1508 1508 1508 1508 1507 1507 1507 1507 1507 1508 1508 1509 1509 1510 1510 1509 1511 1512
1463 1463 1464 1464 1465 1467 1468 1469 1470 1472 1474 1477 1481 1484 1485 1488 1491 1491 1491 1491 1493 1495 1497 1498 1499 1500 1501 1502 1502 1503 1504 1505 1505 1506 1506 1506 1505 1506 1506 1506 1506 1506 1507 1507 1507 1507 1507 1507 1506 1506 1506 1507 1506 1506 1506 1506 1506 1506 1506 1506 1506 1506 1506 1505 1505 1505 1506 1506 1507 1508 1508 1508 1508 1509
1460 1460 1460 1461 1461 1463 1464 1466 1467 1468 1470 1473 1476 1478 1480 1483 1485 1486 1486 1487 1489 1491 1493 1494 1495 1496 1498 1499 1499 1501 1502 1502 1503 1503 1502 1503 1503 1503 1503 1504 1504 1504 1505 1505 1505 1505 1505 1504 1504 1504 1504 1505 1505 1504 1504 1504 1504 1504 1504 1504 1504 1504 1504 1504 1504 1504 1504 1504 1505 1505 1506 1507 1507 1508
1457 1457 1457 1458 1458 1459 1461 1462 1463 1464 1466 1469 1471 1473 1474 1477 1479 1480 1482 1483 1485 1487 1488 1490 1491 1493 1495 1496 1496 1497 1498 1498 1499 1499 1499 1500 1500 1500 1501 1501 1502 1502 1502 1502 1502 1501 1502 1502 1502 1502 1502 1502 1502 1502 1502 1502 1502 1502 1502 1502 1502 1502 1502 1502 1502 1502 1502 1502 1503 1504 1505 1505 1506 1507
1455 1455 1455 1455 1456 1457 1457 1459 1460 1462 1463 1464 1466 1468 1469 1471 1473 1475 1477 1479 1480 1482 1484 1485 1487 1489 1491 1492 1493 1493 1493 1494 1496 1496 1497 1497 1497 1498 1498 1498 1499 1499 1499 1499 1499 1498 1499 1499 1499 1499 1499 1499 1499 1499 1500 1500 1500 1500 1500 1501 1501 1501 1501 1501 1501 1500 1500 1501 1501 1502 1503 1504 1505 1506
1453 1452 1452 1453 1454 1454 1455 1456 1458 1459 1460 1461 1462 1463 1464 1465 1467 1469 1471 1474 1476 1478 1479 1481 1483 1485 1487 1488 1489 1489 1490 1491 1492 1494 1494 1494 1495 1495 1496 1496 1496 1496 1496 1496 1496 1496 1496 1496 1496 1496 1496 1496 1496 1496 1497 1497 1498 1498 1498 1498 1499 1499 1499 1499 1499 1499 1499 1499 1500 1501 1502 1503 1503 1504
1450 1450 1450 1451 1452 1452 1452 1454 1455 1457 1458 1458 1459 1459 1460 1461 1462 1464 1466 1469 1471 1473 1475 1476 1478 1480 1483 1484 1485 1486 1487 1487 1488 1490 1490 1491 1491 1492 1492 1493 1493 1494 1494 1494 1495 1494 1494 1493 1493 1493 1493 1493 1493 1493 1494 1495 1495 1496 1496 1496 1497 1497 1498 1498 1498 1498 1498 1498 1499 1500 1501 1502 1502 1503
1447 1447 1448 1449 1449 1450 1450 1451 1452 1453 1455 1455 1455 1455 1456 1457 1458 1460 1462 1464 1466 1469 1470 1471 1473 1476 1478 1480 1480 1481 1482 1483 1484 1485 1486 1487 1488 1489 1489 1490 1491 1491 1491 1492 1492 1492 1492 1491 1491 1491 1491 1490 1490 1491 1492 1492 1493 1494 1494 1495 1496 1496 1497 1497 1497 1497 1497 1497 1498 1499 1500 1501 1502 1502
1444 1444 1445 1446 1446 1447 1447 1448 1449 1450 1451 1452 1452 1453 1454 1454 1455 1456 1459 1460 1462 1464 1465 1466 1469 1471 1472 1474 1475 1476 1477 1478 1479 1481 1483 1484 1484 1485 1486 1487 1488 1488 1488 1488 1489 1489 1489 1489 1489 1488 1488 1488 1487 1488 1489 1490 1491 1492 1493 1493 1494 1495 1495 1495 1495 1495 1496 1496 1497 1498 1499 1500 1501 1502
1441 1441 1442 1442 1443 1443 1444 1445 1446 1446 1447 1449 1450 1451 1451 1451 1451 1453 1455 1457 1458 1460 1461 1462 1464 1465 1467 1468 1469 1471 1472 1473 1474 1477 1479 1480 1481 1482 1483 1483 1483 1483 1483 1485 1486 1486 1486 1487 1486 1486 1486 1485 1485 1485 1486 1488 1489 1490 1491 1492 1493 1493 1494 1494 1494 1495 1495 1496 1497 1498 1499 1499 1500 1501
1438 1439 1439 1439 1440 1440 1440 1441 1442 1443 1444 1445 1447 1449 1448 1448 1448 1450 1452 1453 1454 1455 1457 1458 1459 1460 1462 1463 1464 1466 1467 1467 1469 1471 1474 1476 1477 1478 1479 1480 1480 1480 1480 1481 1483 1483 1483 1484 1484 1484 1484 1483 1483 1484 1485 1486 1487 1488 1489 1490 1491 1492 1492 1493 1493 1494 1495 1496 1497 1498 1498 1499 1500 1500
1435 1435 1437 1437 1437 1437 1437 1438 1439 1440 1441 1442 1443 1444 1444 1444 1445 1446 1448 1449 1450 1451 1453 1454 1455 1456 1457 1458 1460 1462 1463 1463 1464 1466 1469 1471 1473 1474 1476 1476 1477 1477 1477 1477 1479 1479 1479 1480 1481 1481 1481 1481 1482 1482 1484 1485 1486 1487 1488 1489 1490 1490 1491 1492 1493 1494 1495 1496 1496 1497 1498 1498 1499 1500
1433 1433 1433 1434 1434 1434 1434 1435 1435 1437 1438 1439 1439 1440 1441 1441 1442 1443 1444 1444 1446 1447 1449 1450 1451 1452 1453 1454 1456 1457 1459 1459 1461 1463 1465 1467 1468 1470 1471 1472 1472 1473 1473 1473 1474 1475 1476 1476 1477 1478 1479 1479 1479 1480 1482 1483 1484 1485 1486 1488 1488 1489 1490 1491 1492 1493 1494 1495 1496 1497 1498 1498 1499 1500
1431 1430 1430 1431 1431 1431 1432 1433 1433 1434 1435 1435 1436 1437 1438 1438 1439 1440 1440 1441 1442 1444 1445 1446 1447 1448 1449 1450 1451 1453 1454 1456 1458 1460 1463 1464 1464 1465 1466 1467 1468 1468 1468 1468 1469 1471 1472 1473 1473 1474 1476 1476 1477 1478 1479 1480 1482 1483 1485 1487 1488 1489 1489 1490 1492 1493 1494 1495 1496 1497 1497 1498 1499 1499
1428 1428 1428 1428 1428 1429 1429 1430 1431 1431 1432 1432 1433 1434 1435 1435 1436 1436 1436 1438 1440 1441 1441 1442 1443 1444 1445 1446 1448 1449 1451 1452 1453 1455 1458 1459 1460 1460 1462 1462 1463 1463 1463 1463 1464 1466 1467 1469 1470 1471 1472 1473 1475 1477 1477 1478 1479 1481 1483 1485 1487 1488 1489 1490 1491 1493 1494 1495 1495 1496 1497 1497 1498 1499
1426 1425 1425 1425 1425 1426 1426 1427 1428 1428 1429 1429 1430 1431 1432 1433 1433 1434 1434 1435 1436 1437 1438 1439 1439 1440 1441 1443 1445 1446 1447 1448 1449 1450 1452 1453 1454 1456 1457 1458 1457 1458 1458 1458 1459 1461 1463 1465 1466 1467 1469 1471 1474 1476 1477 1477 1478 1480 1482 1484 1485 1487 1488 1490 1491 1492 1493 1494 1495 1496 1496 1497 1499 1499
1423 1423 1422 1422 1423 1423 1423 1424 1424 1425 1426 1426 1427 1428 1429 1430 1431 1431 1432 1433 1434 1434 1435 1435 1436 1437 1438 1440 1441 1442 1443 1443 1444 1446 1447 1448 1449 1451 1453 1453 1452 1453 1454 1454 1455 1457 1459 1461 1462 1464 1466 1469 1471 1474 1476 1477 1478 1479 1481 1483 1484 1485 1486 1488 1490 1491 1492 1494 1495 1496 1497 1497 1498 1499
1421 1420 1419 1420 1421 1420 1420 1420 1421 1421 1422 1423 1423 1424 1425 1426 1427 1428 1429 1429 1430 1430 1431 1432 1432 1434 1435 1436 1436 1438 1438 1439 1440 1442 1443 1444 1445 1447 1448 1448 1448 1449 1450 1451 1451 1453 1455 1458 1460 1462 1465 1467 1469 1471 1474 1476 1477 1478 1481 1482 1483 1484 1485 1487 1489 1491 1492 1493 1494 1495 1496 1496 1497 1498
1419 1418 1417 1418 1418 1418 1418 1418 1417 1418 1419 1419 1420 1421 1421 1422 1423 1424 1425 1425 1425 1426 1427 1428 1428 1429 1430 1431 1432 1433 1434 1435 1437 1438 1439 1440 1442 1443 1444 1445 1445 1445 1446 1447 1448 1449 1452 1455 1458 1460 1463 1465 1468 1471 1472 1473 1476 1478 1480 1481 1482 1484 1485 1487 1488 1490 1491 1493 1493 1493 1494 1496 1497 1499
1416 1415 1415 1416 1416 1416 1416 1416 1415 1415 1416 1417 1418 1418 1419 1420 1420 1421 1421 1422 1422 1423 1423 1424 1425 1426 1426 1427 1428 1429 1430 1432 1433 1434 1435 1437 1438 1439 1440 1441 1441 1442 1443 1444 1445 1447 1449 1452 1454 1458 1462 1465 1468 1470 1471 1473 1475 1478 1480 1481 1482 1483 1485 1487 1488 1489 1491 1492 1491 1492 1494 1496 1497 1499
1414 1414 1414 1414 1414 1414 1414 1414 1414 1414 1414 1415 1416 1417 1417 1418 1418 1419 1419 1419 1419 1420 1420 1420 1421 1422 1422 1423 1424 1425 1426 1428 1429 1430 1431 1432 1434 1435 1435 1436 1438 1438 1440 1441 1443 1445 1447 1449 1452 1456 1461 1464 1467 1469 1471 1473 1476 1477 1479 1480 1481 1483 1485 1486 1488 1489 1491 1491 1491 1492 1494 1496 1497 1498
1412 1412 1412 1412 1412 1412 1411 1411 1412 1412 1413 1414 1415 1416 1416 1416 1416 1416 1417 1416 1416 1416 1416 1416 1417 1417 1418 1419 1421 1422 1423 1424 1425 1426 1427 1428 1429 1431 1432 1433 1434 1436 1438 1439 1441 1444 1447 1449 1452 1455 1459 1462 1466 1469 1471 1474 1476 1477 1478 1480 1481 1483 1485 1486 1488 1489 1490 1490 1491 1492 1494 1495 1496 1497
1409 1409 1409 1409 1409 1409 1409 1409 1409 1408 1409 1412 1414 1415 1415 1415 1414 1414 1414 1414 1413 1413 1412 1412 1412 1413 1414 1415 1417 1418 1419 1420 1420 1422 1423 1424 1425 1426 1427 1428 1431 1433 1435 1438 1441 1444 1448 1451 1454 1456 1458 1461 1464 1468 1471 1473 1476 1477 1478 1479 1481 1483 1485 1486 1486 1487 1488 1490 1491 1493 1494 1495 1496 1497
1407 1407 1407 1407 1406 1406 1407 1407 1406 1406 1407 1410 1412 1413 1413 1412 1412 1412 1411 1411 1410 1410 1409 1409 1409 1409 1411 1412 1413 1414 1414 1415 1416 1417 1418 1420 1421 1422 1423 1425 1428 1430 1433 1436 1439 1443 1448 1453 1455 1456 1457 1459 1463 1466 1469 1472 1475 1477 1478 1480 1481 1482 1484 1484 1484 1486 1488 1489 1491 1493 1494 1495 1496 1497
1404 1405 1404 1403 1402 1403 1403 1404 1404 1405 1407 1409 1410 1410 1410 1410 1410 1409 1409 1409 1408 1407 1406 1406 1406 1406 1408 1408 1409 1410 1410 1411 1412 1413 1415 1417 1418 1419 1420 1422 1426 1430 1433 1436 1439 1443 1448 1453 1455 1456 1458 1460 1463 1465 1467 1470 1474 1476 1478 1480 1481 1482 1482 1483 1484 1486 1488 1489 1491 1492 1493 1494 1495 1496
1400 1401 1400 1400 1400 1401 1401 1402 1402 1403 1405 1407 1408 1409 1408 1408 1408 1407 1407 1406 1405 1404 1404 1403 1404 1405 1405 1406 1406 1407 1408 1408 1409 1411 1412 1414 1416 1418 1420 1422 1426 1431 1435 1438 1441 1445 1449 1453 1456 1457 1459 1462 1464 1466 1468 1471 1473 1476 1478 1479 1481 1482 1482 1483 1485 1486 1487 1489 1490 1491 1492 1494 1494 1495
1397 1397 1397 1398 1399 1400 1399 1400 1401 1402 1404 1405 1406 1407 1407 1407 1407 1406 1405 1405 1404 1403 1402 1402 1403 1403 1403 1404 1404 1405 1405 1406 1408 1408 1409 1411 1415 1419 1422 1424 1428 1433 1437 1440 1443 1447 1451 1454 1457 1459 1461 1462 1465 1467 1469 1470 1472 1475 1477 1478 1480 1481 1482 1484 1485 1486 1487 1489 1490 1491 1492 1493 1494 1494
1394 1394 1395 1397 1398 1399 1398 1398 1399 1402 1403 1404 1405 1405 1405 1405 1406 1405 1405 1404 1404 1403 1403 1403 1403 1403 1403 1403 1404 1404 1404 1406 1408 1409 1411 1414 1417 1421 1424 1427 1430 1435 1439 1442 1445 1448 1452 1456 1458 1460 1461 1463 1465 1466 1468 1469 1471 1473 1475 1477 1479 1481 1482 1484 1485 1486 1487 1488 1489 1490 1491 1492 1493 1494
1392 1393 1394 1395 1397 1399 1398 1398 1399 1401 1402 1403 1404 1404 1404 1404 1404 1404 1405 1405 1405 1405 1405 1405 1406 1406 1406 1407 1407 1407 1407 1409 1411 1413 1416 1419 1421 1423 1426 1430 1432 1435 1438 1441 1445 1449 1453 1456 1458 1460 1461 1462 1464 1466 1468 1469 1470 1472 1474 1476 1478 1480 1482 1483 1484 1486 1487 1488 1489 1490 1491 1491 1492 1493
1391 1393 1394 1394 1395 1396 1397 1397 1399 1400 1401 1401 1402 1403 1403 1403 1403 1404 1405 1406 1407 1408 1408 1409 1410 1411 1411 1412 1413 1413 1413 1415 1416 1417 1420 1424 1426 1428 1430 1433 1435 1436 1438 1441 1445 1450 1453 1455 1458 1460 1461 1463 1465 1467 1468 1469 1470 1471 1473 1475 1477 1479 1481 1483 1484 1485 1486 1487 1489 1490 1491 1492 1492 1493
1389 1391 1392 1393 1393 1394 1395 1396 1397 1398 1399 1400 1401 1401 1402 1403 1404 1405 1406 1407 1408 1409 1410 1411 1413 1414 1415 1416 1417 1418 1419 1420 1421 1422 1424 1427 1429 1432 1434 1436 1438 1439 1441 1443 1446 1450 1453 1456 1459 1461 1462 1463 1466 1467 1468 1469 1470 1470 1472 1474 1476 1478 1480 1482 1483 1485 1485 1487 1488 1490 1491 1492 1493 1494